Theta_e
335 332 329 329 328 324 319 318 303 311 307 302 302 304 301 309 309 308 309 311 311 318 318 321 323 320 318 317 317 319 322 318 318 311 313 325 338 336 338 335 334 335 335 337 340 343 345 347 344 346 347 347 346 347 346 346 345 344 344 341 340 341 341 341 342 342 342 341 340 340 341 341 342 342 342 342 341 342 342 344 344 344 344 344 344 344 344 344 344 345 345 345 344 343 343 340 339
330 326 326 329 326 322 314 314 307 304 305 300 299 303 302 308 308 308 307 312 314 316 319 322 323 323 321 321 321 320 320 323 325 323 329 333 336 335 337 333 334 335 335 337 340 342 343 342 344 345 346 346 347 347 347 346 346 344 342 340 340 341 341 341 340 341 341 342 341 339 339 341 342 342 343 343 343 343 343 343 343 343 343 343 343 344 344 344 344 345 344 343 343 343 340 339 339
327 325 322 327 323 319 313 312 302 302 301 298 300 303 307 305 306 309 312 315 318 319 320 322 323 321 320 320 318 318 315 326 329 329 328 335 329 333 336 333 336 336 336 337 340 342 340 341 343 346 347 346 346 346 346 346 346 343 341 340 339 339 339 341 341 339 339 340 341 341 340 342 342 343 343 343 343 343 342 342 342 342 342 342 343 343 343 343 344 344 343 343 343 341 340 338 338
330 329 322 321 314 319 309 308 305 301 300 298 300 305 305 306 308 311 316 317 318 320 320 320 318 324 318 315 318 321 322 325 330 329 327 329 331 335 334 334 337 337 337 338 340 340 340 342 342 345 346 346 346 346 345 345 345 341 340 340 341 340 340 341 339 339 339 339 340 340 340 341 342 342 342 341 344 345 344 342 342 343 344 344 343 343 343 343 343 343 343 342 342 341 340 338 337
328 327 325 320 315 311 308 307 304 303 299 300 299 304 306 308 309 312 317 318 317 319 318 320 318 323 324 320 321 318 322 328 331 332 330 334 336 336 335 335 337 335 335 336 340 341 341 341 342 344 346 346 345 344 343 343 342 340 338 337 338 339 340 337 340 338 340 341 341 341 341 341 341 342 342 342 344 344 344 344 344 344 344 344 344 343 344 343 343 343 342 341 341 341 339 338 337
323 323 328 320 312 315 308 302 302 301 303 305 302 303 306 310 310 315 316 316 317 319 319 320 318 319 318 322 323 323 328 322 329 331 332 334 337 337 334 337 334 334 335 337 340 341 342 341 342 344 346 346 345 343 342 342 342 340 339 338 337 338 339 341 344 345 344 344 344 344 344 344 343 343 342 344 344 344 344 343 344 343 343 343 343 343 343 343 343 342 342 341 340 339 337 336 336
320 318 319 319 314 315 305 302 302 303 303 306 304 304 306 309 313 315 315 315 317 317 318 320 321 319 315 323 323 330 333 333 331 331 335 336 338 335 332 334 334 334 335 336 339 341 343 342 344 344 346 346 343 342 342 342 340 339 339 340 340 340 341 344 344 344 344 343 344 343 342 342 341 341 341 342 342 342 342 342 341 342 341 341 341 342 342 342 342 342 341 340 339 337 336 335 335
326 315 315 309 309 309 303 302 303 305 303 307 306 305 307 310 314 313 314 313 313 313 316 319 320 318 318 325 319 328 331 333 335 336 338 337 338 333 334 334 334 334 334 337 339 341 345 340 343 343 342 342 342 342 341 341 339 339 339 341 343 344 344 343 344 344 343 342 341 341 341 341 341 340 341 341 341 341 341 341 341 341 341 341 341 340 341 341 341 341 340 340 338 336 335 334 333
320 316 321 312 306 309 303 300 302 305 305 306 306 307 310 313 314 313 312 313 315 315 316 319 320 312 317 317 324 327 331 334 336 337 337 336 336 334 333 333 332 334 334 335 341 341 342 339 342 343 341 342 343 340 340 342 341 340 340 342 344 344 343 343 341 342 341 341 341 340 340 340 340 341 340 340 340 340 340 340 340 340 340 340 340 340 340 340 340 340 339 337 336 335 334 333 332
316 315 310 310 310 304 303 302 299 303 304 306 306 307 307 311 313 314 312 311 313 313 316 320 319 312 316 315 320 327 330 334 335 336 336 336 335 334 332 333 334 334 334 334 338 339 342 344 338 341 341 342 343 342 339 341 344 343 344 344 344 343 342 340 340 339 339 339 340 340 340 339 340 339 339 340 340 339 339 339 339 339 339 339 339 339 339 338 338 339 338 336 335 334 333 333 332
310 315 317 307 305 304 304 301 301 303 304 306 307 308 309 311 314 313 313 312 313 312 318 319 314 313 314 317 325 332 334 335 333 332 335 335 336 334 332 333 335 335 334 335 338 339 341 343 341 337 340 340 341 341 341 344 344 344 344 343 342 341 340 339 339 338 339 339 340 340 340 339 339 339 339 339 339 339 339 339 339 339 339 338 339 339 338 338 338 338 338 336 335 334 333 332 331
308 310 312 305 305 305 305 303 301 303 305 306 308 308 310 311 314 311 311 309 311 313 313 315 313 316 312 316 323 329 332 332 334 335 334 336 334 334 334 335 335 335 336 335 337 337 339 343 342 341 335 336 338 339 340 344 345 344 343 342 340 339 339 339 339 339 339 340 339 339 339 339 339 338 339 339 341 338 338 338 338 338 338 338 338 338 338 337 337 337 337 336 335 334 334 333 332
312 313 308 306 306 306 306 304 303 302 303 306 308 310 310 312 312 312 310 311 311 310 310 316 319 313 310 311 327 330 329 332 333 335 335 334 333 334 333 335 335 336 336 336 335 336 339 340 340 339 337 331 332 334 336 339 341 342 343 342 341 343 342 340 340 340 339 340 340 340 342 341 340 340 341 341 342 338 338 339 339 338 338 338 339 338 337 336 337 337 337 337 336 335 334 333 332
312 311 310 305 309 306 305 305 305 300 301 307 309 309 310 312 314 314 312 309 309 309 316 319 316 315 311 315 323 326 329 333 334 335 334 335 334 332 332 334 336 335 336 335 333 335 337 338 340 341 338 337 337 335 331 337 339 341 341 343 343 343 344 344 342 341 341 341 341 341 340 339 339 339 338 339 339 339 339 338 339 338 338 338 338 337 337 337 337 337 336 336 336 335 334 333 332
311 314 309 307 305 305 307 304 303 301 301 307 306 309 310 313 311 312 312 309 311 317 319 322 322 312 309 309 317 324 329 333 334 335 334 334 333 331 333 333 335 336 334 334 334 334 335 337 338 341 338 339 337 337 336 341 334 338 339 340 340 340 340 340 340 338 338 339 338 337 336 334 333 333 334 335 336 336 335 334 337 337 337 337 336 335 335 336 335 336 336 335 335 334 333 332 330
314 310 309 304 302 304 306 306 305 302 301 306 307 309 310 311 312 310 312 312 313 319 316 313 322 314 313 312 324 330 332 333 335 334 332 332 332 331 332 332 332 334 334 333 333 334 335 335 338 341 338 338 338 338 337 338 334 332 335 335 336 336 337 336 334 333 332 332 332 332 331 333 331 333 329 333 331 332 331 332 333 336 336 335 336 335 334 334 334 333 333 333 332 332 331 330 329
316 313 302 303 300 303 305 306 305 301 303 305 307 309 307 308 311 312 312 315 311 313 314 320 316 321 320 322 328 333 333 334 333 333 331 329 330 328 327 327 328 330 332 333 333 333 335 335 336 337 338 339 338 338 338 337 340 331 331 330 331 333 333 333 330 326 324 324 327 326 330 335 336 335 337 336 329 334 324 327 332 336 335 335 335 335 334 333 333 333 332 331 330 329 329 327 328
313 305 303 301 304 304 307 306 305 305 304 304 306 309 309 308 309 310 313 312 312 315 313 320 321 319 325 322 326 335 333 333 333 330 328 328 328 324 323 325 327 326 329 331 333 333 333 334 335 335 336 337 338 339 338 338 338 334 337 339 339 334 329 328 333 338 336 337 327 333 337 334 334 335 335 336 336 334 330 323 329 334 335 334 334 334 333 333 332 332 331 331 330 330 324 330 327
308 306 305 302 306 305 306 305 306 305 303 304 304 306 309 310 310 311 308 309 310 310 312 317 316 318 322 323 326 333 331 331 330 329 327 327 326 323 323 325 326 326 326 328 331 332 333 333 333 333 335 337 337 337 337 337 336 335 336 335 338 332 337 337 336 336 338 337 336 336 334 334 334 334 334 339 333 323 327 322 325 328 330 331 332 332 332 331 331 330 328 329 329 327 333 333 331
309 303 301 304 306 304 306 306 303 304 304 304 304 305 306 311 311 313 308 308 310 308 309 313 313 315 319 322 325 332 331 330 330 328 327 327 327 326 323 324 325 326 327 329 330 332 333 333 333 334 334 335 336 334 336 335 334 335 334 334 334 335 336 335 336 335 335 336 336 334 331 334 333 336 329 329 334 333 327 320 321 323 324 326 327 330 329 330 329 328 328 326 328 330 332 330 330
310 307 304 305 305 304 304 305 304 303 303 303 304 304 303 308 310 310 309 307 308 310 312 312 313 314 320 323 325 331 329 329 329 329 328 327 328 328 326 326 325 327 328 330 330 330 331 332 333 333 334 335 335 333 333 332 333 332 333 333 332 331 333 333 334 334 335 336 336 333 333 334 334 333 333 332 333 332 332 332 331 332 333 332 321 334 333 334 329 332 330 329 332 331 331 330 329
310 309 311 304 303 303 303 304 303 303 302 302 303 303 304 308 307 308 308 305 306 309 312 313 313 314 322 323 325 330 329 328 328 328 328 328 328 327 328 328 328 329 329 328 329 329 331 332 333 333 333 334 334 333 332 332 333 331 331 331 332 332 332 332 332 332 333 335 335 334 334 333 332 332 332 332 332 332 331 331 332 332 332 332 329 332 332 332 332 331 330 330 330 330 330 330 329
307 311 308 307 303 301 302 303 301 301 303 302 303 304 305 304 305 307 307 307 309 311 312 312 313 315 326 326 326 327 328 328 328 328 328 328 329 328 328 328 328 327 328 329 330 330 330 332 333 333 332 332 333 334 332 331 331 332 332 332 332 332 332 331 331 332 332 333 334 333 332 332 332 331 331 331 331 332 331 331 332 332 332 331 330 330 330 331 331 331 331 330 329 329 330 330 329
312 311 309 306 303 301 302 303 302 302 301 302 304 304 302 303 301 307 306 309 311 313 312 312 314 317 325 324 326 326 328 329 329 330 330 330 330 330 330 329 330 330 330 329 330 329 330 330 332 333 332 332 332 332 331 331 331 331 332 331 332 331 332 332 332 332 333 332 333 332 330 333 332 331 331 331 331 332 331 332 333 332 331 331 330 330 329 328 328 329 330 330 329 329 327 327 326
310 311 306 304 302 302 302 305 304 302 303 305 303 301 302 304 303 304 304 307 309 311 313 311 315 320 324 324 325 326 328 329 329 330 332 332 332 332 333 332 332 331 330 329 331 329 330 331 331 331 332 331 331 331 330 331 331 331 331 331 331 330 332 333 333 333 333 332 332 332 332 332 331 331 331 331 331 331 332 331 330 330 331 331 331 328 328 328 327 327 328 329 329 327 326 326 326
313 313 308 303 304 303 306 305 303 304 307 305 303 303 304 304 304 302 304 307 309 311 313 313 314 317 321 322 324 324 327 329 330 330 331 333 333 331 331 332 332 330 331 331 331 330 331 331 330 330 330 331 331 331 331 330 330 330 331 330 331 331 333 333 333 332 333 332 332 332 333 332 332 330 331 331 330 330 331 330 330 330 329 330 329 327 328 327 326 327 327 328 327 325 325 327 326
313 312 306 305 305 304 307 304 305 307 306 307 303 303 303 303 303 300 308 308 309 311 311 313 313 314 318 320 323 324 326 328 329 331 332 331 331 330 330 331 331 331 332 331 331 332 332 330 330 330 331 332 332 330 330 330 331 330 331 331 331 331 332 333 333 333 333 331 331 333 333 332 332 331 330 330 330 330 330 330 329 329 329 329 330 329 330 328 327 326 326 325 326 327 327 327 327
312 309 307 306 306 305 306 306 305 307 305 304 303 303 305 304 302 301 306 308 309 309 310 313 313 313 315 318 322 325 325 328 330 331 329 329 330 330 330 330 330 331 332 332 332 334 332 331 330 330 331 331 331 331 331 331 331 330 331 331 331 332 332 332 333 332 329 331 332 333 333 332 331 331 331 331 329 330 330 329 329 330 329 330 330 330 330 329 329 329 329 329 329 328 327 327 328
311 311 307 309 309 307 309 306 307 308 306 305 304 303 304 303 298 303 306 309 309 309 310 313 313 313 315 317 320 324 325 327 329 329 330 330 331 331 330 332 331 331 332 333 333 334 333 332 331 331 331 331 331 330 331 331 332 331 331 332 332 333 331 331 331 331 331 332 332 333 333 332 330 330 331 332 330 330 331 331 331 330 331 331 331 331 331 330 329 329 329 329 329 328 328 328 330
311 311 310 308 308 307 312 313 312 309 309 305 306 299 305 309 302 304 308 309 309 307 308 311 312 313 314 317 319 323 325 326 328 330 330 331 331 331 331 332 332 332 332 333 333 332 334 334 333 332 331 331 331 330 330 331 332 332 332 333 332 333 332 330 330 332 331 332 332 334 334 331 330 330 330 331 331 330 331 331 330 330 331 332 330 330 330 330 329 329 329 329 326 327 326 326 326
307 310 309 306 305 306 311 312 312 308 307 308 308 299 303 306 303 306 307 307 308 306 307 309 312 313 315 318 320 321 324 326 327 329 331 331 332 332 332 333 332 333 332 333 332 333 333 334 334 332 332 331 331 330 330 331 332 332 331 332 332 333 332 331 331 331 332 331 332 333 333 331 331 330 330 331 331 330 330 330 330 330 331 331 330 330 329 329 329 328 328 327 327 326 325 325 325
310 303 302 307 304 307 305 309 310 307 301 309 307 300 302 306 310 305 307 306 307 306 306 307 310 312 315 317 319 320 322 325 327 328 330 331 332 332 333 333 333 332 332 333 333 333 332 334 334 333 333 332 332 330 331 331 332 332 332 328 332 334 332 331 331 331 331 331 331 332 333 332 332 331 331 332 331 331 330 329 330 331 332 331 330 330 330 328 328 328 328 327 325 324 324 324 325
307 304 304 303 305 306 306 304 307 307 302 306 307 302 305 304 309 308 306 306 306 306 306 307 308 311 313 314 316 318 320 322 326 327 328 330 331 333 333 333 333 333 333 333 332 332 332 333 333 333 333 333 332 331 332 332 332 332 332 331 331 333 332 331 332 332 332 332 332 331 332 332 332 332 331 332 331 332 330 330 330 332 332 332 330 330 329 329 328 328 327 327 326 324 323 323 323
302 305 303 306 304 306 304 301 305 306 305 300 303 302 304 308 303 303 304 305 304 304 304 306 307 308 312 314 315 317 318 319 322 325 327 329 331 332 333 330 333 333 333 333 333 332 332 333 333 333 333 333 333 333 332 332 332 332 332 332 331 332 333 332 332 333 332 333 332 331 333 333 332 332 331 332 331 331 331 331 331 331 332 332 330 329 328 329 328 327 325 327 327 326 323 322 322
299 301 302 303 306 306 306 304 301 304 304 304 303 299 301 305 308 310 310 305 304 304 304 305 306 307 309 312 313 314 316 318 321 325 327 329 331 332 332 333 333 333 333 332 333 333 333 333 333 332 332 333 333 333 333 333 333 333 333 333 332 331 332 332 332 332 333 333 332 333 333 333 332 332 332 331 330 329 330 331 331 332 331 331 330 329 328 328 327 326 325 324 326 326 324 324 323
303 304 303 304 302 303 303 305 301 302 299 299 302 301 302 304 305 307 308 309 307 306 307 306 305 306 307 308 311 313 314 315 320 324 328 329 330 331 331 332 332 333 332 332 332 333 333 333 333 332 332 332 333 332 333 332 332 331 330 331 331 331 331 330 333 333 333 333 334 334 333 334 333 332 332 331 330 329 329 330 331 332 331 330 329 327 327 327 326 325 326 325 325 325 326 324 324
306 306 305 304 304 306 306 306 299 302 301 301 302 302 302 304 305 306 308 307 306 306 306 307 306 305 306 306 307 310 312 313 319 323 326 329 330 330 331 332 332 332 332 332 332 332 333 332 332 330 332 332 331 331 331 331 329 329 330 330 329 331 330 331 331 332 333 334 335 334 334 333 334 333 332 332 331 327 329 330 331 331 331 330 328 327 328 327 327 327 326 325 324 323 323 326 326
306 304 304 302 305 302 307 305 301 301 302 303 306 304 303 304 306 308 308 306 303 303 304 305 307 307 306 307 307 308 310 315 323 323 325 327 328 330 331 331 329 330 330 331 331 331 332 332 331 331 331 332 331 331 331 331 331 331 330 330 331 331 331 330 329 331 332 334 335 335 334 334 334 333 332 333 332 331 329 330 331 330 331 330 329 329 328 325 327 327 327 324 326 323 322 324 326
305 303 303 302 302 305 305 302 302 301 301 302 305 302 303 305 306 307 307 308 308 306 304 305 306 307 307 307 307 308 309 312 316 317 319 323 327 329 329 330 330 330 330 330 331 331 331 331 331 331 330 330 331 330 330 331 332 333 332 332 332 332 334 333 332 331 332 332 334 335 335 335 334 334 333 332 332 331 330 330 330 331 331 330 329 328 328 328 327 327 327 325 323 324 323 326 326
303 303 301 299 304 302 299 304 301 301 301 301 301 299 301 304 305 305 307 308 309 310 307 306 306 305 306 307 307 308 308 310 311 312 314 318 323 326 327 328 329 330 329 329 329 330 330 330 331 331 330 331 331 331 329 332 333 334 334 334 334 333 332 333 334 332 332 331 331 333 335 335 335 334 334 333 332 332 331 330 331 332 331 331 330 328 328 327 328 327 327 326 325 321 322 322 324
304 304 302 301 302 303 302 298 299 299 301 300 298 297 298 302 302 304 307 309 309 310 308 307 307 308 308 309 310 309 307 309 311 311 312 313 318 322 325 326 328 328 328 328 329 329 329 330 331 331 330 331 332 331 330 331 332 332 333 334 334 333 333 332 332 331 331 330 330 331 332 334 335 334 334 334 331 332 332 332 332 332 331 331 330 328 327 328 328 328 327 326 325 322 320 322 322
300 304 303 303 304 302 302 302 300 300 300 296 296 293 295 302 305 306 308 307 306 307 306 306 306 306 307 305 306 308 310 310 310 310 311 312 315 321 323 325 326 327 327 328 330 330 330 330 331 331 331 331 331 332 332 331 330 330 330 329 328 328 328 329 328 328 329 329 329 331 333 334 334 334 334 334 333 331 332 332 333 332 331 331 330 329 329 328 327 327 327 327 326 326 323 321 321
298 299 305 304 304 303 303 301 301 295 293 297 298 292 290 300 300 303 304 304 304 306 305 304 305 306 306 306 306 307 308 309 310 310 310 311 313 317 321 323 325 326 327 329 330 330 330 330 331 331 331 331 333 333 333 330 330 330 330 329 329 328 327 328 331 332 331 331 332 331 332 333 334 334 334 334 333 332 332 332 333 333 332 331 330 330 328 328 327 328 328 327 326 326 325 321 320
297 305 305 305 303 302 302 301 301 298 303 302 299 298 291 292 299 304 305 304 304 305 307 307 306 305 305 305 306 306 307 308 310 310 309 310 311 313 316 320 324 325 327 329 329 329 329 330 330 331 331 331 333 333 333 332 329 329 329 329 329 329 328 328 330 331 332 331 331 331 332 332 333 333 333 333 333 333 332 332 333 332 332 332 330 329 329 329 328 328 328 329 328 326 325 322 321
300 303 306 304 304 303 302 301 299 299 294 292 298 301 291 291 299 304 304 302 303 304 306 307 308 309 307 307 306 307 307 308 309 311 311 310 310 311 313 316 321 325 327 327 328 329 330 330 330 331 331 331 332 333 333 332 330 330 330 329 329 329 330 330 330 331 331 331 330 331 331 332 332 332 332 332 333 333 331 332 333 332 331 331 330 331 331 330 327 327 327 327 326 326 325 324 323
299 304 306 305 304 301 300 299 296 296 292 288 295 298 289 291 299 301 305 301 301 304 307 307 307 309 309 309 310 308 308 309 310 309 310 311 312 312 313 313 314 319 323 327 328 329 329 330 329 330 330 331 332 333 333 333 332 329 330 330 329 329 329 329 330 329 330 330 329 330 330 330 330 330 331 332 332 332 332 331 331 332 331 330 328 331 331 330 328 327 328 327 326 325 324 323 323
302 302 300 299 299 297 297 296 295 292 288 291 296 298 295 288 297 300 301 301 302 304 305 306 308 308 309 309 309 311 309 309 309 309 308 308 309 309 310 310 311 313 318 321 324 326 328 329 329 329 330 331 332 332 332 332 332 331 329 329 329 329 329 329 328 327 328 329 328 328 329 329 329 329 330 330 331 332 331 330 330 330 331 330 328 330 329 329 329 328 329 328 325 324 322 322 322
301 299 297 297 294 296 293 292 293 287 286 291 296 297 297 286 294 301 303 301 302 302 302 303 305 306 307 307 307 306 305 305 306 306 306 307 307 308 308 307 308 309 310 315 319 322 324 326 328 328 329 329 330 331 331 332 332 332 331 330 329 329 329 329 327 326 327 327 328 327 328 328 328 328 329 329 330 331 331 330 329 329 328 329 329 330 329 329 329 328 327 325 324 323 323 321 321
299 299 298 292 288 288 285 288 284 285 285 288 292 295 292 291 296 301 302 304 303 304 305 304 304 304 305 306 306 306 306 306 306 306 307 308 307 307 307 307 307 308 309 310 313 317 319 321 323 324 325 328 329 330 330 330 331 330 331 330 329 329 329 329 328 327 328 327 327 327 327 326 327 327 327 327 328 329 329 329 328 328 328 328 329 328 329 329 328 326 325 324 323 322 322 321 320
296 295 293 290 285 283 281 285 287 288 291 290 291 293 288 294 297 302 302 304 306 304 303 303 303 302 303 303 305 306 308 307 307 307 308 308 308 309 308 307 307 308 308 309 310 312 315 317 318 320 321 325 327 328 329 329 330 330 330 330 329 329 328 329 328 328 328 328 328 327 327 327 326 326 327 327 328 329 329 329 328 328 329 329 328 328 327 327 326 325 324 323 323 323 323 321 321
296 300 298 292 290 286 282 285 282 284 288 287 293 288 287 289 295 298 300 302 303 302 303 304 304 304 303 303 304 304 304 306 308 308 308 307 308 307 307 307 307 307 308 309 309 309 311 313 315 317 318 321 324 326 327 327 328 329 329 329 329 329 328 327 328 329 328 328 328 328 328 328 326 327 327 328 329 328 328 328 328 328 328 328 327 326 325 325 325 324 323 324 323 323 322 321 320
298 300 302 295 292 297 288 288 288 288 288 285 285 288 295 296 302 303 304 303 302 302 302 304 303 303 304 303 304 305 305 305 306 307 307 307 307 307 307 307 307 308 308 308 307 308 309 309 311 314 316 318 320 323 325 327 327 328 329 328 328 328 327 328 327 328 328 329 328 327 327 328 327 328 328 328 328 328 327 327 326 326 327 327 326 325 324 324 323 323 322 322 321 321 320 319 318
294 296 290 295 300 298 291 286 288 287 288 286 291 289 293 299 300 302 303 302 302 303 305 302 302 303 303 304 304 304 304 306 306 306 306 306 306 307 308 308 308 308 308 308 308 308 308 308 309 309 311 314 316 319 321 325 326 326 327 328 328 328 327 326 326 327 328 328 329 328 327 327 328 328 328 328 328 328 327 326 325 325 325 325 324 324 323 323 322 322 321 320 319 318 318 318 316
297 290 294 300 301 299 292 286 286 286 283 286 292 288 291 292 289 302 303 302 303 304 305 302 303 302 301 304 305 304 305 305 306 306 306 306 306 306 306 308 308 308 308 309 309 309 309 309 308 308 309 310 313 316 318 321 324 324 325 326 326 326 326 327 327 327 327 327 328 328 328 327 327 328 328 328 328 326 326 320 324 323 323 323 322 322 322 322 321 321 320 319 318 316 317 317 315
298 295 304 294 287 286 292 289 283 283 282 284 289 290 289 292 293 297 297 298 299 301 302 301 300 300 301 302 303 304 305 307 307 307 308 308 307 307 307 308 308 308 308 307 308 309 309 309 309 309 309 310 312 314 316 319 321 323 324 324 325 325 326 326 327 327 327 327 327 328 328 327 328 328 327 326 324 323 323 321 322 321 321 321 321 320 320 320 319 318 317 316 315 315 313 312 311
299 302 297 302 297 292 288 288 289 289 284 284 285 289 286 295 295 299 298 299 301 300 301 301 300 301 301 302 303 303 305 306 306 307 307 308 308 307 306 307 307 307 308 309 309 309 308 308 308 308 309 310 311 313 316 316 319 321 322 323 323 324 324 325 326 326 326 326 327 328 327 326 326 325 325 323 322 320 319 318 319 318 318 319 319 318 318 317 316 316 314 311 311 312 310 309 308
291 294 292 295 294 296 296 295 290 288 286 286 286 285 290 298 301 300 301 302 303 301 301 301 302 302 303 303 304 305 304 305 306 307 306 307 308 308 308 308 308 307 307 306 306 307 309 309 308 308 308 309 310 312 314 316 318 319 319 320 321 322 323 324 325 326 327 327 328 327 326 325 324 323 323 320 319 319 318 317 317 316 316 316 316 316 316 315 315 313 311 310 309 310 307 306 305
294 293 292 294 291 288 286 285 295 291 288 285 285 283 290 299 301 302 302 303 302 302 302 303 302 302 303 304 305 305 306 305 305 306 306 307 307 309 309 309 309 307 307 306 308 308 308 308 309 309 308 308 309 310 312 314 315 317 318 319 320 321 323 324 324 325 325 326 326 325 324 323 322 321 320 319 318 317 316 316 316 315 315 315 315 315 313 313 312 310 308 308 308 308 305 304 302
Wind_Speed
9 6 4 6 6 6 7 3 5 4 6 2 4 2 5 3 3 5 6 6 6 6 4 3 4 5 4 6 9 6 8 9 8 4 3 6 6 8 9 10 11 11 10 10 10 9 9 4 6 10 10 9 10 11 9 9 10 13 13 12 11 13 13 13 13 13 14 13 12 11 12 12 14 14 13 13 14 14 15 16 16 16 16 16 16 17 17 17 18 18 19 19 19 19 18 17 17
6 6 5 5 6 5 3 2 5 2 3 4 5 1 6 6 5 5 6 2 6 7 4 4 4 2 3 7 5 0 9 10 10 8 8 8 7 8 10 10 10 11 9 10 9 9 9 8 5 9 10 10 10 11 12 12 10 12 13 12 12 13 12 11 12 12 12 12 12 11 12 12 13 13 14 14 14 14 14 15 15 15 16 16 16 16 17 16 17 17 18 19 18 18 17 16 16
6 6 5 5 7 6 5 4 6 2 4 3 5 6 4 5 3 3 6 7 8 8 4 5 3 3 3 5 5 6 6 6 10 11 8 9 10 8 9 10 10 10 9 8 10 9 8 8 3 10 12 12 12 14 13 11 11 11 13 13 12 11 11 13 12 11 11 12 12 11 10 12 13 13 13 13 13 13 14 13 13 15 16 15 16 16 15 16 17 17 18 18 18 17 16 16 15
6 5 5 5 6 4 5 5 4 4 3 2 5 5 4 2 5 8 8 8 6 6 5 6 5 3 4 1 6 3 7 6 7 10 8 10 7 10 9 9 11 9 7 7 9 9 8 7 7 10 12 13 12 13 14 12 10 10 11 12 13 12 12 11 11 11 10 10 11 11 10 12 12 12 12 11 13 13 13 14 16 16 16 16 15 15 16 16 16 17 17 17 17 16 15 15 14
5 4 3 6 6 3 4 3 4 4 3 4 5 5 3 2 8 6 7 6 6 4 5 5 3 4 3 4 4 4 6 9 8 7 8 7 12 9 10 10 9 9 8 9 9 9 9 8 6 9 11 12 13 13 13 12 11 11 11 11 12 11 11 9 10 9 12 12 11 11 11 11 12 11 11 13 15 14 13 14 15 15 15 15 15 15 16 16 16 17 17 16 15 15 14 13 13
5 5 3 5 4 3 4 5 5 2 6 5 3 5 2 4 7 7 7 6 5 3 1 7 2 3 4 2 4 3 2 2 6 7 8 7 10 11 10 8 9 9 9 8 9 9 9 6 4 8 12 12 12 12 12 12 11 10 10 11 11 10 10 10 12 12 11 12 12 10 11 12 11 9 11 13 13 14 14 15 15 15 15 14 14 15 15 16 16 16 16 15 15 14 13 13 13
3 5 4 4 3 2 5 4 1 2 6 4 6 4 3 5 8 8 9 7 4 2 2 4 2 2 5 5 5 5 6 5 5 6 4 11 10 10 10 8 9 10 8 8 8 10 10 5 3 8 11 9 11 12 12 12 11 9 9 10 10 9 9 11 11 11 11 11 13 12 10 11 11 11 11 12 13 13 14 15 15 14 14 14 14 15 15 15 15 16 15 15 14 13 13 13 13
3 5 4 6 3 3 4 2 1 2 6 5 4 4 2 6 7 7 8 6 7 5 7 2 3 6 6 2 1 5 3 6 5 9 12 10 9 9 8 9 9 9 8 8 8 10 9 5 5 7 10 11 10 12 11 11 11 9 8 11 11 10 10 11 12 11 10 11 12 12 10 11 10 10 11 11 12 12 13 13 14 14 13 14 14 14 14 14 14 14 14 14 14 13 13 13 13
2 6 2 5 6 3 3 4 3 3 4 2 3 3 3 2 6 7 7 2 8 1 8 7 2 5 6 5 5 6 5 6 5 9 10 11 9 8 6 9 9 8 9 8 10 10 9 5 5 6 7 8 11 10 11 12 10 10 9 10 10 10 10 9 12 12 11 11 11 11 10 10 10 10 10 11 11 11 12 12 13 13 13 13 14 13 13 13 13 14 14 13 13 13 12 12 12
4 3 2 4 5 5 2 2 4 4 4 4 2 3 4 4 6 6 7 5 4 5 4 4 2 5 2 3 7 6 6 7 8 9 11 10 10 7 7 8 10 10 8 9 8 9 8 7 7 6 6 6 7 7 8 10 11 10 10 10 10 10 9 10 10 10 10 10 10 10 10 9 9 10 10 10 10 11 11 11 12 12 13 13 13 13 13 13 13 13 13 12 12 12 12 12 11
5 3 2 5 6 5 4 4 1 5 3 3 2 3 3 5 6 6 6 5 4 4 6 3 4 7 4 2 5 5 8 8 9 11 11 10 9 6 7 7 9 9 8 8 9 9 10 8 7 6 6 7 8 7 7 10 10 10 10 10 10 10 10 10 10 10 10 10 9 10 9 9 9 9 9 9 10 11 11 11 11 11 12 12 12 12 12 12 12 12 12 12 11 11 11 11 11
5 5 4 6 5 5 4 3 2 2 3 1 6 3 3 6 6 6 6 6 6 4 5 9 1 2 5 2 5 7 8 8 10 10 11 9 8 6 7 6 8 8 9 8 9 9 9 9 7 6 7 7 7 7 8 8 8 9 9 9 10 9 11 10 10 11 10 10 9 10 9 9 9 9 7 7 7 9 10 10 10 11 11 11 11 11 11 11 11 11 11 11 10 10 10 11 11
3 2 6 6 4 2 3 5 2 2 4 5 5 4 1 7 8 6 6 3 6 5 5 7 4 3 3 2 7 9 9 9 10 11 10 8 7 6 5 6 7 9 8 7 7 8 9 10 9 8 6 7 7 7 8 9 8 8 5 8 8 9 9 10 11 11 9 10 10 10 10 10 10 9 10 11 10 9 9 9 10 11 11 11 11 11 11 11 11 10 10 10 10 10 10 10 10
2 2 4 6 2 4 3 2 1 5 4 6 5 2 5 5 6 2 4 5 6 4 6 7 3 2 2 2 7 7 8 10 11 11 9 8 7 6 5 6 7 8 8 7 7 8 8 8 9 9 9 8 7 5 8 9 8 7 6 6 8 8 9 10 12 12 10 9 9 9 9 10 10 10 10 9 9 8 7 8 9 10 10 10 11 11 11 10 10 10 10 10 10 9 10 10 10
3 2 3 5 3 3 3 5 2 5 5 4 3 2 5 1 4 2 4 5 6 7 4 3 1 4 3 5 6 7 11 13 12 11 9 8 7 7 6 6 6 7 7 7 7 8 7 7 8 9 9 8 8 6 6 7 9 8 7 7 7 9 10 11 11 11 10 9 8 10 9 9 9 9 9 8 8 7 7 8 7 8 10 10 10 10 10 10 10 9 9 9 9 9 9 9 8
2 3 2 4 6 5 5 6 2 5 4 5 3 1 5 3 1 3 2 6 4 3 3 3 3 2 3 3 7 10 16 14 12 11 10 9 7 6 6 6 7 6 5 6 7 7 7 7 7 8 8 8 7 7 6 7 7 9 8 7 7 8 10 11 11 11 10 9 10 10 10 9 8 7 8 8 8 9 9 8 7 8 8 8 9 10 9 9 9 9 9 8 8 8 8 8 7
1 2 2 2 7 5 3 4 4 1 7 6 3 4 6 5 4 2 3 3 4 5 5 2 4 2 5 6 6 12 15 14 12 13 11 9 7 6 6 6 6 6 4 6 6 7 7 7 8 7 7 8 7 6 6 7 8 9 7 8 7 8 9 10 10 10 9 8 8 9 9 8 7 6 7 7 7 6 7 9 9 8 8 8 9 9 9 8 8 8 8 7 6 6 6 7 6
2 4 3 6 6 6 2 1 4 2 2 6 4 2 4 5 6 3 1 5 6 2 6 5 2 4 4 6 2 12 14 15 14 14 12 10 8 7 7 7 7 7 6 6 6 7 7 8 8 7 6 8 7 5 5 6 7 8 8 7 7 6 7 9 8 7 8 7 7 7 7 6 6 6 6 8 7 7 7 8 9 9 9 8 8 9 8 7 7 6 6 5 4 3 5 4 5
4 4 4 6 6 3 4 5 5 3 5 4 3 0 4 0 2 6 6 6 8 7 8 6 7 7 6 6 6 13 14 14 15 14 14 13 10 10 9 8 8 8 7 6 6 7 7 7 9 8 7 8 7 7 5 5 7 6 8 7 6 7 8 8 7 7 7 7 7 7 6 6 6 6 4 5 7 10 7 7 8 9 9 7 7 7 6 6 6 5 3 2 2 4 5 1 2
3 0 4 7 4 4 5 3 5 4 3 3 3 3 3 2 3 6 6 6 6 9 6 8 9 10 10 9 10 13 13 15 14 14 14 13 11 10 10 10 9 8 8 7 7 7 8 7 9 8 8 8 7 7 6 5 5 6 6 7 7 7 8 6 7 7 7 7 6 6 5 6 6 6 6 8 7 6 5 6 8 9 9 7 7 5 7 5 6 6 5 4 6 4 1 1 1
6 7 6 2 2 2 4 4 4 3 3 3 3 1 4 3 4 5 3 7 9 9 9 6 8 9 11 11 12 14 14 15 15 14 14 13 12 9 9 9 9 8 8 7 6 8 9 9 9 8 9 8 8 7 7 6 6 6 6 6 7 7 7 7 6 7 7 7 6 6 4 6 5 5 5 4 6 6 6 6 5 5 6 6 5 5 5 5 6 5 4 5 3 1 1 1 1
2 8 4 3 2 3 5 4 4 2 1 2 2 4 2 4 4 7 8 8 3 4 3 5 5 4 13 13 14 14 14 15 16 16 16 15 15 12 10 9 8 8 8 8 8 9 10 9 9 8 9 9 9 8 7 6 6 6 6 6 7 6 7 7 7 7 7 6 7 6 4 5 6 4 6 6 5 4 4 5 5 4 3 3 5 4 3 2 3 2 2 1 1 1 1 1 2
6 6 5 2 2 3 2 2 3 2 1 2 3 3 5 5 5 7 9 11 4 5 3 4 3 4 11 12 14 14 14 16 17 18 17 16 15 13 11 9 9 9 8 8 8 8 9 9 9 9 9 9 10 8 7 6 6 5 5 6 6 6 6 7 7 7 7 8 8 6 6 6 5 5 5 5 4 4 4 4 3 3 4 4 4 3 3 2 3 2 2 2 1 1 1 1 2
8 6 6 6 3 2 2 3 0 1 1 2 3 4 5 5 8 1 8 9 11 1 3 4 2 1 9 12 15 16 16 17 18 18 17 16 15 14 11 11 9 9 8 9 9 8 9 11 10 10 9 10 9 9 8 7 6 6 6 6 6 6 6 7 7 7 7 7 8 7 7 6 6 5 5 5 4 4 5 4 3 3 3 2 2 2 2 3 3 3 2 2 2 2 3 2 3
8 9 5 4 3 3 1 2 1 2 1 2 2 4 6 6 5 3 10 11 9 8 4 3 3 4 9 11 14 14 14 15 15 15 13 11 13 13 12 9 9 9 9 10 9 9 10 10 11 11 10 11 9 9 8 7 7 7 7 6 6 6 7 6 7 7 6 7 8 7 7 6 6 5 5 5 4 4 4 4 3 3 2 2 2 2 2 2 3 3 3 3 3 2 2 2 1
11 7 4 5 6 3 1 3 3 2 1 1 4 7 8 3 5 10 15 13 10 3 4 4 5 7 9 11 12 13 14 15 15 14 15 12 12 14 14 12 10 11 10 10 10 9 10 11 12 12 11 10 9 9 8 8 7 7 7 7 6 6 6 6 7 6 6 7 7 8 7 6 5 5 5 5 4 4 4 3 3 3 3 3 2 2 2 3 3 3 2 2 2 2 2 2 2
1 5 4 5 6 4 3 5 5 3 4 3 6 7 5 5 3 5 2 3 4 4 6 6 8 9 10 9 11 12 13 14 15 13 12 12 12 13 14 13 12 11 10 11 10 9 9 11 11 12 11 10 9 9 9 8 8 8 7 7 7 7 6 6 6 6 6 7 7 8 8 7 5 5 5 5 5 5 4 4 4 3 3 3 2 2 1 2 2 2 2 2 2 3 3 3 3
2 3 3 6 5 7 6 6 8 4 5 2 4 8 8 4 4 11 4 5 3 5 6 8 9 9 9 11 11 11 11 12 11 12 15 15 12 12 14 13 13 12 12 11 10 9 10 12 12 12 12 10 10 10 9 8 8 8 8 7 7 7 7 6 6 6 7 6 7 7 8 7 7 5 6 5 5 5 5 5 4 3 3 3 3 2 2 2 2 1 0 2 3 3 4 4 3
3 5 5 7 8 9 12 12 10 6 6 2 2 10 13 10 9 11 14 6 6 7 7 8 9 9 9 10 10 9 10 11 11 12 15 14 12 11 14 13 13 13 10 12 11 11 12 12 11 12 12 11 11 11 9 8 8 8 7 7 7 7 7 7 6 6 6 7 6 7 7 8 7 6 6 6 6 5 5 4 4 4 3 3 3 3 3 2 3 3 3 3 3 4 4 4 3
4 5 6 5 7 10 13 12 11 8 6 6 2 9 10 12 14 11 12 6 6 7 8 8 8 8 9 9 9 10 10 11 12 13 13 12 12 12 13 13 14 12 10 9 12 13 11 9 9 9 11 12 12 10 9 8 8 7 7 7 7 8 7 7 7 6 7 6 7 8 7 8 7 7 6 7 6 6 5 5 5 5 4 4 4 3 4 4 4 4 4 4 4 4 5 5 5
6 4 3 6 6 8 6 8 9 10 7 8 4 10 9 4 4 8 9 7 8 9 9 9 9 9 9 9 9 10 11 12 14 14 13 13 12 12 13 13 14 14 10 10 13 13 13 10 9 9 11 12 12 11 10 9 8 8 7 7 7 8 7 7 7 7 7 7 7 7 8 8 8 7 7 6 7 6 6 6 6 5 5 5 4 5 5 5 4 5 4 5 5 5 6 5 5
7 4 6 8 8 4 7 7 10 9 5 7 8 9 11 12 12 4 5 6 8 9 9 9 9 9 9 9 10 10 11 12 13 13 13 13 13 12 13 14 14 15 14 12 11 12 13 13 11 10 12 13 12 12 11 10 9 8 7 7 7 8 7 7 7 7 7 7 7 7 9 9 8 8 8 7 7 7 6 6 6 6 6 4 5 5 5 5 5 5 5 5 6 6 5 6 5
6 8 6 8 8 9 6 9 7 4 6 9 12 7 4 8 12 8 4 6 7 9 10 10 9 10 10 9 9 9 9 11 11 13 13 13 13 12 13 15 14 15 15 14 13 13 14 15 13 13 13 13 13 12 11 10 9 9 9 8 8 8 8 7 7 7 7 7 7 7 8 9 9 9 8 8 7 7 6 6 6 6 6 6 6 5 6 5 5 4 5 5 6 6 6 6 5
8 7 7 9 11 7 9 8 7 7 8 7 11 10 16 9 2 4 6 5 6 8 9 10 10 8 8 7 8 9 10 10 12 13 14 15 13 15 13 12 15 15 15 15 14 14 14 14 14 14 13 13 13 12 11 10 9 9 9 8 8 8 8 7 7 7 7 7 7 8 8 9 9 9 9 9 7 7 7 6 6 7 6 6 6 6 6 6 6 6 6 6 5 6 6 6 6
10 11 11 11 12 12 11 8 8 7 9 10 9 14 18 14 14 14 10 6 8 9 8 7 8 9 8 7 8 9 9 10 12 11 14 15 15 14 13 12 13 14 12 15 14 13 12 12 12 12 12 14 13 13 12 12 11 10 8 9 8 9 8 8 8 8 7 8 8 8 9 8 8 9 9 9 8 8 7 7 7 8 7 7 7 6 7 7 7 6 7 6 5 5 5 5 5
14 12 10 9 10 9 11 3 7 5 7 7 10 12 14 14 14 13 14 15 13 14 11 9 9 9 8 8 8 8 9 11 9 9 11 12 13 12 12 12 12 13 13 13 15 14 13 13 12 12 13 14 13 12 11 11 11 11 11 10 10 9 9 8 8 8 8 8 8 8 8 8 8 9 9 9 9 8 8 8 8 8 8 7 7 7 7 7 7 7 7 6 6 6 5 4 5
10 11 10 11 10 11 2 3 5 3 4 9 10 14 16 17 15 12 11 9 12 13 13 11 9 9 9 9 9 9 10 10 5 7 9 11 11 11 11 11 12 13 14 14 15 15 15 14 13 15 12 14 13 12 12 12 12 11 11 12 11 11 10 10 10 9 8 9 9 8 8 8 8 9 9 9 9 8 8 8 8 9 8 7 6 8 8 8 7 7 6 5 6 6 6 6 6
10 10 11 10 12 10 9 4 6 3 5 8 9 11 15 16 15 14 12 12 15 14 12 12 12 12 10 11 12 11 10 6 5 5 7 8 9 10 10 10 12 14 14 15 16 16 16 16 15 14 13 14 16 16 14 13 13 12 11 10 11 10 9 7 10 10 9 8 10 11 11 10 10 9 8 9 9 9 8 8 9 10 9 8 8 9 8 7 7 8 6 6 4 6 6 4 2
9 9 9 10 10 11 4 7 5 4 2 9 11 14 16 17 14 13 13 15 15 14 13 12 12 12 12 11 11 11 9 9 9 10 10 10 11 11 11 11 12 14 14 15 16 16 16 15 15 14 14 15 16 16 14 15 13 13 12 10 10 9 10 9 10 10 9 10 10 10 10 11 11 11 10 10 9 10 9 9 8 8 10 9 9 10 9 9 8 8 6 7 6 6 5 2 2
9 9 9 10 7 9 10 5 3 4 4 5 8 13 13 17 17 19 19 18 17 16 16 16 13 14 14 13 11 10 11 11 11 11 12 12 12 12 12 12 12 12 13 14 15 16 14 14 15 15 15 15 14 16 13 15 14 14 14 11 11 12 10 10 10 10 11 12 13 12 11 11 12 11 12 10 9 9 9 9 9 9 10 8 8 9 9 9 8 7 8 9 8 7 6 5 5
11 11 10 9 8 7 7 2 2 3 8 5 9 12 13 14 15 13 13 18 19 17 15 16 14 13 13 10 10 11 12 10 10 11 11 11 13 14 15 14 12 13 14 14 14 14 12 16 17 17 16 15 14 14 14 14 12 13 13 12 11 11 11 11 10 10 11 11 11 12 13 12 12 12 12 12 8 9 9 9 9 10 10 9 9 10 9 9 10 10 10 8 9 9 7 6 5
9 12 11 10 8 7 7 6 6 6 7 6 2 8 9 8 11 11 6 1 6 9 12 14 15 14 9 12 12 11 10 11 11 11 12 12 13 13 13 14 14 13 14 14 14 15 15 15 17 17 14 14 14 16 16 14 13 14 13 13 14 13 14 13 16 15 12 12 13 10 11 12 13 11 11 12 9 9 10 9 9 9 9 9 8 9 9 9 10 10 10 9 10 10 8 6 6
9 9 9 9 11 7 8 6 3 8 10 3 1 7 8 4 11 8 6 7 8 7 10 12 12 12 10 10 11 12 13 12 12 12 10 10 11 12 13 14 15 15 15 14 13 15 17 16 16 16 15 14 14 15 17 14 14 13 17 16 14 14 15 14 13 11 11 11 11 13 12 13 14 13 12 10 9 11 9 9 10 9 9 9 8 9 10 10 8 8 7 9 10 8 8 8 7
9 5 8 12 10 8 8 5 6 9 9 6 8 6 11 12 11 13 13 15 17 16 16 14 12 12 13 14 14 13 12 12 9 11 12 12 12 12 14 15 14 15 13 11 12 13 15 16 15 15 14 13 13 13 16 16 15 15 16 16 13 14 15 13 13 13 12 10 11 14 13 12 13 12 10 10 12 12 9 10 10 10 10 10 8 9 10 9 6 6 8 8 7 7 8 9 6
1 5 8 11 9 8 5 5 7 5 6 8 6 4 6 9 5 11 12 14 14 16 14 12 12 12 14 14 13 13 13 12 10 8 10 10 11 11 11 10 11 12 11 12 13 12 12 13 14 13 15 14 13 15 14 17 15 14 14 13 14 12 13 12 9 9 10 11 13 13 12 11 10 10 10 11 11 10 10 10 12 11 11 11 9 7 7 7 7 8 8 7 7 5 5 6 6
3 2 6 5 4 2 1 3 2 5 4 11 6 7 7 14 7 9 8 8 12 11 8 6 9 11 9 10 10 11 10 8 9 10 8 8 7 8 9 9 9 9 9 9 10 10 11 11 13 15 16 13 13 15 15 17 17 14 14 14 15 13 11 11 12 12 10 11 14 13 12 9 7 9 11 13 11 11 10 10 9 10 11 11 9 9 9 9 7 8 8 8 7 7 6 8 7
7 9 10 8 5 3 2 1 3 3 11 13 9 10 7 11 3 6 7 5 1 1 2 3 3 2 4 5 6 4 4 4 2 3 5 6 7 7 6 8 8 7 5 8 9 11 11 12 13 16 17 13 13 15 16 17 16 16 15 15 16 15 14 13 12 13 13 12 14 14 14 9 10 10 10 11 13 12 12 11 10 10 8 7 8 11 11 10 9 8 6 8 9 10 7 8 8
12 6 8 7 4 2 2 0 1 5 10 3 2 9 13 10 2 4 4 4 1 1 2 3 4 5 5 3 0 0 1 2 3 4 5 6 5 6 7 8 9 9 9 9 10 10 11 12 13 15 16 16 15 14 15 16 15 16 15 16 16 15 14 12 14 15 14 15 14 14 13 10 10 10 10 11 11 11 11 10 12 11 10 9 9 8 9 10 9 7 6 7 7 8 8 8 7
8 8 9 8 4 2 4 3 6 10 10 3 4 4 5 19 13 9 4 8 4 7 7 6 8 8 8 7 1 1 2 4 5 5 5 4 5 5 6 7 7 8 9 10 10 10 11 12 14 15 16 16 16 15 16 17 16 17 16 16 16 13 14 14 13 13 12 13 12 12 11 11 10 11 12 11 12 15 11 11 11 11 10 10 9 8 6 7 7 7 8 8 8 9 8 8 8
8 12 9 8 8 5 8 8 5 5 3 4 4 2 9 11 10 13 18 19 16 2 2 1 5 7 8 8 7 6 4 5 5 5 5 5 5 5 6 7 7 7 9 9 10 9 9 10 13 15 16 15 15 15 16 16 17 17 16 15 14 12 14 14 17 12 11 11 11 12 11 11 12 14 11 13 11 13 12 12 10 11 11 11 11 9 9 8 8 8 8 9 9 8 8 9 9
10 8 11 7 6 4 8 6 10 5 1 4 4 2 5 3 0 6 4 2 1 3 4 4 5 6 7 6 6 6 6 4 4 4 4 4 4 5 5 5 6 6 6 6 6 7 7 9 10 13 13 13 14 15 14 16 15 16 15 14 13 12 13 13 15 11 10 11 11 11 10 10 13 13 12 11 11 13 13 12 12 12 11 11 10 10 8 9 9 7 7 9 8 8 8 8 8
9 9 6 11 12 7 5 2 3 2 2 3 5 7 3 6 7 6 5 6 7 6 8 8 5 4 4 3 4 3 1 2 1 3 3 3 3 3 4 4 5 5 5 5 6 5 6 7 8 10 11 11 11 12 13 14 14 13 14 15 15 13 10 9 11 9 10 11 11 11 10 12 12 12 11 11 12 12 12 13 12 12 11 11 10 10 10 9 9 9 8 7 8 6 8 9 6
10 7 7 7 6 2 3 1 3 1 2 10 5 6 9 10 15 18 15 11 10 11 7 4 4 4 2 2 1 1 2 2 1 2 2 2 2 3 3 4 4 4 4 5 5 5 6 7 7 8 9 9 10 11 12 12 12 13 14 14 13 13 13 13 14 11 12 11 11 10 10 11 12 11 10 10 12 12 12 12 12 12 11 10 10 11 11 10 9 9 8 8 8 7 8 9 6
10 9 9 6 6 6 3 7 2 3 8 6 4 10 7 4 7 1 11 15 14 12 12 4 6 3 3 3 3 2 2 2 2 1 1 1 2 3 3 3 4 4 4 4 5 5 5 6 6 7 8 9 9 10 11 11 12 12 12 13 13 14 11 11 12 11 10 10 11 10 10 10 12 11 9 9 10 11 11 13 12 11 10 10 10 10 10 10 10 8 9 8 7 7 7 6 7
10 9 9 11 6 9 7 1 10 9 8 6 8 11 11 11 11 4 7 8 9 9 7 9 9 6 6 6 5 3 2 1 3 3 2 2 1 2 2 3 3 3 3 4 4 4 5 6 7 8 9 9 9 7 8 8 9 8 8 11 12 12 12 11 11 11 11 11 12 9 9 10 7 9 8 7 9 9 9 10 10 11 10 10 10 10 10 9 9 8 8 7 7 8 7 6 5
4 4 11 9 3 6 8 8 2 2 9 5 6 7 7 10 13 11 8 11 9 6 9 10 11 8 8 6 5 3 1 2 2 3 3 2 2 2 2 3 3 3 2 2 3 4 6 6 6 7 6 7 7 8 8 10 9 9 9 10 12 11 10 11 11 11 11 11 11 6 9 9 9 7 7 8 9 9 9 10 9 10 10 10 10 10 10 9 9 8 8 7 7 8 8 7 6
8 11 11 10 3 2 2 3 7 6 5 8 8 9 7 5 9 12 15 13 8 5 7 8 9 9 7 6 4 3 1 0 0 1 2 3 3 3 3 3 2 2 3 3 3 5 4 4 5 6 6 7 7 7 8 8 8 8 9 10 10 9 10 9 11 11 10 10 9 8 8 8 7 9 8 8 9 9 9 10 10 10 11 11 11 10 9 8 9 9 8 8 9 8 9 7 8
12 14 14 16 12 7 11 10 8 6 7 6 6 11 8 2 5 7 7 9 7 5 5 5 6 8 7 6 5 4 3 2 1 1 2 3 3 3 3 2 2 2 3 3 3 3 4 4 4 4 5 6 6 7 7 8 8 8 8 8 9 8 9 9 10 10 10 10 10 10 9 9 10 9 9 10 10 9 9 10 10 10 11 11 11 11 10 9 9 9 9 7 8 9 8 9 8
Wind_Direction
276 246 280 267 272 267 289 223 263 156 244 81 113 208 81 88 78 147 115 144 153 73 73 149 84 147 345 0 2 20 38 15 23 303 55 123 158 122 119 120 125 128 125 121 124 135 136 128 120 106 105 108 98 94 90 86 84 94 96 98 97 84 82 82 76 73 79 89 84 78 83 83 82 81 82 84 85 86 87 87 88 85 83 80 77 78 77 77 75 75 74 74 73 72 70 69 67
274 300 263 263 264 286 231 357 273 229 186 145 79 26 96 107 209 152 130 143 55 117 108 138 141 100 11 342 335 286 61 44 34 86 93 117 152 123 116 132 132 126 124 125 134 136 125 120 103 104 111 115 109 105 104 97 100 104 100 92 86 84 83 87 91 91 88 88 86 89 87 83 85 86 88 91 90 89 88 83 80 82 81 81 80 80 79 78 78 78 78 78 77 72 70 68 68
302 312 295 236 258 250 300 235 269 22 280 96 89 70 121 151 162 129 103 78 95 113 106 122 97 166 244 229 190 334 88 69 89 91 112 145 143 132 133 125 126 124 124 130 127 129 124 116 118 108 107 114 107 100 101 110 105 95 99 97 98 100 91 86 91 90 83 92 100 96 97 102 94 92 93 91 97 100 98 95 89 85 84 81 80 80 81 80 78 79 80 80 76 73 69 68 69
282 290 307 297 292 228 261 228 270 314 14 19 114 109 131 144 104 86 78 90 104 138 143 140 185 68 312 26 31 199 87 84 71 114 120 184 129 134 130 124 128 122 127 123 129 129 117 117 102 103 111 111 111 108 113 115 115 102 96 100 95 92 92 93 95 92 100 98 93 97 100 96 95 94 90 90 78 75 77 93 92 87 82 79 81 83 82 79 79 79 78 78 75 72 70 69 70
264 280 291 305 290 281 308 313 320 266 33 6 53 119 132 138 110 112 95 96 111 161 181 155 193 113 357 327 344 335 77 93 111 124 134 94 107 128 126 132 131 123 135 130 123 116 111 86 108 118 118 121 121 119 117 117 104 95 92 90 92 99 104 106 73 92 108 98 97 96 92 92 89 85 82 81 76 78 83 81 83 86 83 82 82 85 84 83 81 80 78 76 75 71 70 68 69
253 266 275 277 302 7 257 232 196 98 44 336 51 71 144 123 122 122 117 114 103 121 350 182 341 133 180 75 17 41 8 171 123 122 138 120 120 127 128 146 128 134 131 128 128 130 122 92 125 128 121 125 121 120 114 108 105 106 109 106 106 101 100 91 75 68 88 99 95 94 97 96 96 99 94 90 96 91 86 84 84 82 82 81 83 84 83 82 82 83 82 78 76 72 70 68 67
318 295 223 245 218 238 268 278 44 60 79 347 41 71 132 129 122 139 132 124 140 119 179 190 181 216 199 116 116 72 67 89 165 134 107 127 126 132 143 138 133 126 133 128 130 123 113 87 110 120 131 126 120 117 114 110 111 114 118 107 106 108 97 91 90 93 92 103 102 99 101 107 108 103 100 92 89 91 88 83 81 80 81 86 86 83 84 83 80 78 76 76 75 73 69 67 65
253 288 25 300 249 241 251 336 326 356 81 21 34 54 87 131 141 157 155 194 155 204 176 121 217 281 68 208 142 100 89 7 56 128 105 137 133 135 150 136 131 132 133 127 130 116 107 81 90 109 121 128 117 121 119 113 109 107 112 113 99 98 103 102 104 103 113 104 103 104 106 104 108 101 98 95 90 86 86 84 83 85 86 85 82 82 82 83 85 83 81 78 76 73 69 67 66
244 273 134 273 260 188 265 214 65 68 101 81 106 55 20 119 168 158 166 112 128 181 165 180 177 235 103 138 72 117 80 123 120 115 133 129 138 147 154 138 134 132 131 133 120 130 131 82 85 120 116 126 129 127 128 120 113 112 108 107 109 112 116 124 116 114 107 101 99 105 105 106 114 114 108 99 94 92 90 90 91 91 92 88 85 84 83 82 82 81 80 79 77 74 71 68 66
236 263 244 269 336 255 225 143 233 96 60 69 23 92 159 174 183 193 155 160 159 172 123 130 186 268 66 137 126 158 126 146 132 142 138 138 139 153 151 138 129 134 136 133 135 144 130 100 73 96 125 106 96 108 117 122 121 115 116 115 116 125 128 120 114 112 105 104 105 108 111 107 106 106 105 102 101 97 95 95 99 93 88 87 85 85 84 85 86 86 85 82 78 74 71 68 66
250 169 334 272 236 273 226 121 214 144 127 107 122 125 157 183 190 190 171 132 133 165 135 166 200 233 240 108 60 75 111 144 157 150 144 141 140 149 146 138 133 140 133 137 138 141 138 133 86 84 107 108 104 104 107 121 126 124 127 128 129 132 129 112 106 107 105 104 107 111 113 113 112 110 109 107 106 103 97 98 98 98 95 90 85 81 81 82 83 86 84 82 79 76 71 68 65
266 225 172 249 260 271 31 358 110 112 116 175 100 105 159 187 188 189 168 168 176 172 177 186 97 132 221 196 125 134 133 153 169 149 150 143 150 148 135 137 143 137 135 139 147 143 151 138 146 95 94 111 108 106 90 107 126 129 133 136 131 128 124 116 115 104 111 114 114 112 115 114 105 100 87 83 101 108 102 101 100 98 93 92 90 88 89 88 88 85 85 84 81 77 73 68 63
307 353 243 259 274 219 25 264 123 36 225 82 75 75 166 186 191 191 171 185 164 197 171 183 82 231 212 183 98 128 150 166 161 149 149 158 145 141 146 136 153 135 138 145 157 142 155 155 153 151 110 109 117 115 104 98 98 88 110 137 123 101 105 119 116 115 116 108 104 101 92 84 77 74 67 58 55 92 101 92 98 96 96 93 88 85 84 87 84 83 81 82 81 76 71 67 63
293 347 311 247 71 274 261 323 295 232 139 89 64 72 172 189 199 267 181 197 176 183 74 130 195 142 245 137 154 158 156 166 154 154 153 161 143 139 148 141 155 140 145 160 159 150 163 166 160 146 143 157 145 132 106 105 100 107 104 100 109 106 101 105 110 111 109 97 95 92 89 84 79 71 66 59 63 61 71 87 86 90 89 90 88 85 84 83 82 83 83 82 79 77 72 68 62
331 329 263 277 272 245 178 248 39 238 85 54 51 133 162 99 358 320 244 248 108 68 95 65 13 217 93 235 141 166 152 158 155 155 158 159 142 145 143 145 156 148 156 175 160 156 162 176 163 154 166 163 156 167 149 110 112 107 110 111 107 110 109 110 111 112 109 99 96 98 91 91 82 80 68 67 64 59 83 94 89 91 94 91 88 83 79 77 79 81 84 84 83 83 80 72 63
323 294 258 248 251 245 148 234 159 264 82 56 91 96 184 137 197 247 51 356 62 76 173 157 211 324 11 42 60 114 140 149 151 158 160 163 152 146 149 157 162 159 164 181 168 163 165 176 172 164 168 167 169 162 158 138 118 119 116 108 107 111 115 114 114 112 112 113 115 118 118 117 116 103 106 89 78 71 61 67 85 105 103 99 97 93 84 80 79 83 85 88 90 90 89 84 74
259 281 203 220 261 208 131 237 175 214 91 79 126 165 182 177 148 251 357 306 258 160 198 100 165 206 40 67 80 122 138 144 156 162 161 166 166 164 169 170 169 164 169 188 186 165 169 180 181 177 174 174 168 166 155 154 124 125 121 115 113 116 119 119 117 118 118 126 133 143 157 157 147 137 153 130 111 78 72 76 74 77 98 101 99 94 89 83 82 82 85 88 95 100 110 109 101
262 226 226 236 250 229 89 309 42 36 10 66 95 175 223 185 158 160 198 232 247 138 215 152 95 195 87 97 133 131 141 153 162 167 173 172 180 173 177 176 176 173 172 179 189 169 176 182 181 186 177 180 177 169 163 159 145 172 167 147 145 136 127 131 144 150 149 146 155 170 187 153 153 158 125 143 142 135 87 79 83 87 83 79 91 92 91 88 87 83 82 85 95 139 188 181 145
247 254 244 244 233 56 38 52 45 356 59 37 63 41 226 35 149 150 227 209 206 216 217 193 200 191 147 132 155 147 151 161 166 179 178 179 185 180 178 176 183 173 174 179 181 182 179 181 183 187 188 183 181 177 177 168 165 184 178 184 162 164 152 169 179 177 185 170 181 197 190 163 162 154 128 80 84 79 97 92 98 103 104 101 97 96 96 98 97 94 99 123 171 228 234 247 95
202 295 239 241 53 87 65 68 68 46 3 12 33 92 259 136 213 106 232 254 202 231 215 199 217 199 182 156 164 157 167 167 175 184 184 187 192 186 182 179 183 182 176 179 173 186 183 184 181 187 186 186 184 185 184 190 182 186 183 183 179 188 177 194 194 184 196 183 191 194 188 151 173 111 105 115 128 149 120 117 123 120 122 124 139 131 132 139 152 149 165 209 226 222 277 322 66
144 227 232 287 113 195 117 95 85 67 7 346 354 66 241 186 218 198 216 242 243 240 242 224 215 214 177 162 167 163 173 176 180 187 190 193 198 196 192 184 184 180 177 172 173 184 188 186 177 185 184 191 187 188 189 191 190 194 184 186 186 188 187 193 193 192 198 189 206 204 190 138 203 152 155 163 195 178 161 166 168 185 180 172 193 211 180 164 196 180 179 208 228 171 222 336 333
113 222 228 72 334 269 102 95 66 54 64 302 279 275 52 53 232 230 236 240 249 33 32 229 254 245 161 167 171 170 177 184 187 188 195 197 197 197 195 188 185 182 173 180 180 180 187 187 180 180 185 191 191 192 190 184 189 196 195 191 188 195 186 191 194 191 191 198 201 223 169 176 206 168 179 179 203 166 185 183 182 196 177 171 192 219 212 191 213 203 217 244 225 247 0 328 318
227 191 225 243 47 342 75 92 60 286 211 258 283 27 337 254 265 223 236 241 274 74 46 23 6 326 160 164 162 176 183 188 191 194 195 198 199 201 199 192 185 185 177 188 180 179 183 186 183 183 184 190 194 200 185 188 195 203 201 195 195 196 190 193 195 194 196 190 202 210 196 195 203 202 185 196 195 191 192 191 192 186 185 191 190 201 178 206 224 210 210 206 210 256 257 270 260
241 240 170 191 149 131 59 45 155 231 255 281 4 313 279 283 269 324 244 247 263 194 117 90 61 265 157 165 173 180 186 189 196 199 197 199 199 201 203 199 192 186 180 185 183 180 178 186 184 186 185 186 192 198 193 192 190 203 202 199 211 197 194 195 199 198 190 191 201 201 203 206 201 205 193 192 203 204 204 195 201 184 197 199 187 221 190 202 210 218 212 214 217 233 231 265 270
216 236 175 150 174 142 162 309 242 182 213 301 278 267 265 264 293 8 259 259 258 250 145 145 147 169 169 181 182 186 189 194 198 199 199 203 201 203 207 209 201 192 190 187 180 183 179 184 185 189 186 189 189 193 198 197 192 198 196 204 203 208 205 199 200 195 194 193 194 205 200 211 202 202 193 193 201 200 208 197 207 208 202 209 190 217 214 223 220 217 207 216 221 257 276 251 258
213 239 156 160 196 174 194 268 217 212 271 211 283 265 259 248 32 268 261 258 255 236 165 192 190 188 189 196 191 191 193 196 197 195 198 199 200 201 204 208 205 204 195 189 184 187 179 183 187 189 189 189 188 190 196 199 195 196 198 199 200 206 210 211 199 198 198 193 190 194 197 209 200 197 184 192 193 199 201 195 212 216 201 215 200 221 206 235 226 207 224 228 244 248 269 266 303
1 188 183 200 195 201 194 239 219 251 264 242 269 278 277 113 243 275 142 49 109 166 220 202 205 207 200 199 196 199 200 199 197 194 194 201 204 207 206 206 207 208 196 194 191 187 178 183 188 189 191 187 188 192 194 200 195 198 197 198 197 203 207 211 208 204 201 201 198 186 194 204 206 200 190 191 185 193 196 193 208 202 215 212 196 217 184 227 242 247 203 233 225 249 276 292 296
124 138 180 219 212 220 221 232 246 253 259 165 258 274 281 217 198 236 250 145 173 199 202 200 209 212 209 205 198 200 205 205 196 193 199 199 203 204 205 204 205 207 204 200 193 186 181 186 187 191 192 186 192 194 192 199 195 199 197 200 199 200 198 210 210 206 208 204 201 188 193 194 207 200 199 189 199 191 194 195 197 201 215 209 198 205 192 201 246 231 200 328 308 303 281 284 293
171 188 230 220 229 236 222 229 231 218 245 172 331 286 262 218 226 216 240 208 194 216 217 206 212 216 212 207 203 198 205 202 196 200 205 205 203 203 207 205 204 205 207 203 196 190 188 186 189 192 194 186 195 195 194 198 195 195 196 200 199 193 197 207 210 207 206 205 199 195 194 196 195 205 195 196 197 201 198 192 201 201 216 211 191 183 222 221 222 238 226 218 254 257 270 276 277
171 211 253 243 233 242 227 218 227 217 228 120 88 267 251 231 214 207 226 187 194 218 222 212 211 213 213 207 204 203 202 199 201 206 207 204 203 204 208 204 204 204 202 204 200 197 194 189 186 189 194 193 193 200 196 195 198 195 196 200 200 190 197 200 208 209 205 205 198 195 198 198 198 200 201 193 196 203 201 201 209 210 210 216 220 201 215 226 236 231 240 226 239 246 268 275 276
204 148 226 248 248 246 125 178 185 215 170 175 178 256 264 320 170 228 213 202 201 228 229 223 215 209 207 205 205 207 204 204 207 207 206 203 202 204 207 204 200 202 201 203 203 200 197 198 187 191 189 197 190 201 202 199 196 197 197 200 198 194 198 202 204 208 203 204 199 194 196 197 200 202 200 195 195 202 207 209 212 220 217 213 214 218 231 231 234 245 243 246 254 268 271 272 268
213 169 222 218 234 219 134 154 174 212 135 203 184 251 262 260 267 178 174 199 212 234 242 235 220 215 207 204 209 210 211 207 214 214 207 204 203 204 204 205 200 201 204 203 200 199 203 202 196 199 190 199 193 197 201 202 201 200 200 200 204 195 201 204 206 208 208 204 202 199 192 195 196 201 199 202 197 201 209 213 207 213 216 199 217 224 214 242 240 243 249 256 266 268 274 269 266
201 229 225 209 215 236 204 165 177 196 110 178 199 252 257 245 238 223 155 201 223 239 243 245 238 222 216 211 211 214 214 212 211 214 210 204 204 204 204 204 201 201 203 203 201 199 206 205 200 205 203 198 199 196 201 202 205 204 202 200 208 197 205 207 209 210 211 208 204 205 192 192 194 196 200 200 208 203 209 215 211 213 206 202 213 220 221 224 241 236 247 252 265 274 279 279 273
205 208 236 225 229 226 241 111 211 173 198 194 208 240 251 254 173 187 174 219 217 233 240 245 249 238 223 224 222 218 218 214 212 209 208 204 205 205 204 200 201 200 203 205 204 203 205 206 203 206 212 210 210 206 198 204 209 209 206 204 202 208 208 213 212 211 213 212 208 206 197 190 192 193 197 198 206 211 212 216 217 213 203 209 218 220 227 230 236 241 250 250 244 254 257 264 269
198 194 209 223 225 234 253 228 133 198 185 239 213 230 252 256 259 259 248 207 238 248 243 239 239 237 231 226 227 231 231 225 223 212 207 206 207 205 205 200 200 201 202 204 205 205 205 207 206 197 206 212 212 214 212 214 214 215 211 208 202 209 215 216 216 213 213 215 213 208 200 194 193 193 194 197 203 206 211 216 218 216 214 219 224 221 231 236 239 242 245 255 252 245 262 271 271
204 201 210 224 226 217 231 189 134 192 187 211 232 247 255 255 251 247 245 253 248 254 250 245 242 239 237 231 227 231 235 241 239 227 214 211 208 204 203 200 199 201 202 202 204 206 205 207 206 206 200 211 212 211 209 211 216 218 217 216 217 213 218 215 216 221 216 215 214 208 200 199 195 194 195 197 200 204 207 210 211 216 219 220 223 226 228 229 230 231 239 248 251 248 233 255 256
215 224 231 231 236 239 158 171 127 136 259 245 252 258 263 263 262 262 260 246 246 251 251 247 238 233 236 240 235 227 228 238 242 233 223 215 212 208 204 201 199 199 203 202 202 205 208 207 204 210 197 204 211 208 209 208 208 211 217 216 216 217 218 222 226 224 225 218 210 204 204 201 208 195 197 196 198 203 209 208 208 217 220 220 226 230 231 240 236 227 234 228 236 250 247 236 244
215 226 226 230 235 248 235 190 130 140 233 265 257 267 269 270 270 266 260 252 248 246 248 247 245 240 236 234 237 232 230 219 179 202 218 216 213 209 207 207 203 201 203 202 203 204 207 209 209 208 207 203 212 212 209 208 207 206 205 211 215 216 213 202 221 225 226 232 229 222 221 220 216 211 196 196 198 199 202 209 212 218 214 217 224 233 238 234 236 234 230 237 220 242 252 242 209
228 230 219 235 234 246 205 123 144 152 217 265 264 266 270 272 272 269 262 255 251 242 239 244 248 247 244 239 235 234 225 217 203 216 211 209 206 205 207 212 213 213 205 205 206 205 206 208 211 209 209 213 212 212 211 212 208 208 208 210 207 214 216 207 213 222 221 226 228 227 219 215 215 218 207 194 197 199 201 204 208 211 220 220 218 223 227 229 229 229 224 230 238 222 236 245 204
214 215 225 225 229 224 229 176 173 194 240 296 303 293 280 276 265 259 253 250 252 244 235 233 226 237 242 242 236 225 227 223 217 214 211 206 201 200 204 211 214 211 213 212 210 210 208 210 210 210 212 213 213 211 210 215 212 211 213 214 212 216 217 216 203 207 215 219 224 224 224 214 212 217 215 202 195 194 200 205 209 213 220 212 218 223 219 226 227 225 226 227 234 243 212 216 202
213 224 229 236 219 226 264 108 265 205 242 263 283 280 269 260 262 255 246 235 235 236 233 233 229 226 230 239 242 236 237 228 222 219 217 210 199 200 201 206 207 212 213 211 209 206 209 209 209 210 211 212 212 208 198 210 212 213 212 215 223 223 227 226 217 213 209 214 217 218 220 221 221 220 217 213 190 197 199 205 211 216 224 216 216 224 222 222 225 224 223 222 219 227 229 226 178
209 221 238 235 231 242 221 270 311 268 264 156 311 307 278 259 256 262 279 259 225 236 237 231 230 230 211 223 228 229 226 230 229 223 218 211 205 201 199 200 201 210 214 213 207 205 207 210 209 209 210 210 212 211 203 200 207 208 205 209 211 216 221 218 220 217 206 209 217 218 220 216 219 219 213 213 199 200 202 199 206 218 222 220 216 220 222 223 223 221 220 221 221 219 228 231 177
210 209 208 243 253 252 264 272 286 265 258 114 312 263 283 323 296 275 268 257 250 242 228 230 230 231 224 223 228 225 221 219 217 225 224 220 211 205 200 198 201 205 213 210 208 210 211 212 211 208 207 210 210 209 204 201 207 210 212 210 210 212 219 224 220 216 216 212 216 219 218 217 216 214 214 212 204 206 203 200 203 211 225 227 214 215 219 220 220 215 217 217 220 216 216 227 220
220 90 180 216 225 236 249 265 268 267 306 287 237 254 284 280 266 275 268 267 265 259 253 244 231 222 218 218 217 220 227 225 212 209 215 217 216 209 206 203 199 205 205 200 207 213 215 214 212 209 209 210 210 206 204 203 205 208 212 214 214 215 218 222 215 219 217 214 212 220 219 216 213 209 203 206 214 215 198 205 208 205 212 224 221 218 218 215 213 205 208 215 214 215 212 220 220
111 124 180 200 211 233 247 267 264 281 1 280 263 245 276 258 259 246 239 250 250 252 249 243 242 229 231 228 224 217 216 218 214 210 217 218 222 224 223 216 208 205 200 199 203 207 212 219 218 215 214 213 213 207 205 203 203 204 208 213 217 219 221 221 219 210 206 205 215 218 215 210 202 200 205 209 213 213 200 207 206 203 207 211 210 217 215 212 215 212 198 200 207 192 197 202 216
38 164 133 138 130 98 277 254 312 291 281 263 238 206 256 276 265 267 239 232 257 262 258 238 231 236 237 247 242 232 223 218 218 228 227 222 222 223 224 230 221 211 207 200 202 202 207 209 214 217 219 216 214 213 207 209 204 204 210 212 216 217 214 221 223 218 199 205 218 215 211 198 188 201 205 209 206 207 207 206 213 214 211 210 196 199 202 209 213 214 199 187 195 193 191 203 207
133 130 109 103 104 118 81 45 334 294 258 263 224 219 229 291 287 214 236 241 240 171 189 213 226 252 268 272 269 245 234 219 195 221 236 244 241 237 226 224 229 226 196 200 201 205 205 207 209 214 218 218 217 216 214 213 211 207 212 214 215 216 213 210 213 220 216 207 218 217 213 195 198 204 203 210 212 206 206 202 205 208 210 211 195 200 202 200 203 209 199 178 191 194 191 198 202
152 147 131 122 96 113 152 1 172 250 257 70 143 210 199 238 194 201 153 81 249 52 308 276 280 276 278 292 334 25 284 270 255 235 234 231 231 226 223 232 232 228 214 204 205 202 207 207 207 213 215 215 216 217 216 216 214 215 215 215 217 217 215 211 209 214 212 215 213 216 214 201 204 206 204 209 206 200 199 198 198 201 202 206 209 204 202 202 196 185 185 186 190 194 189 187 189
164 159 162 188 199 138 235 207 230 224 250 94 62 111 223 239 244 267 281 278 174 235 264 272 293 301 297 285 254 194 220 258 253 244 240 231 223 219 216 221 223 222 216 212 207 204 209 212 210 212 216 214 216 214 215 217 217 220 219 218 220 220 221 221 218 215 212 213 211 211 204 200 199 205 204 206 205 199 194 194 192 194 195 201 203 202 210 198 181 183 191 187 189 191 189 184 185
169 185 173 190 199 182 236 222 242 276 188 128 133 97 264 281 291 244 244 256 264 288 89 254 264 278 286 279 280 282 269 261 263 253 245 242 232 220 223 224 221 215 213 214 217 212 208 214 216 217 220 215 216 217 218 219 221 222 222 222 222 220 223 228 232 224 214 216 213 211 201 197 206 210 200 206 202 193 194 195 192 196 197 192 194 193 195 194 186 183 183 183 189 188 184 187 192
179 173 185 200 197 191 212 207 215 222 293 124 152 137 243 216 79 10 359 320 332 165 215 217 230 256 266 270 276 273 268 253 224 232 234 234 227 223 227 229 235 235 232 225 225 226 223 223 222 225 227 222 218 218 218 220 222 223 224 226 224 221 224 229 232 227 224 220 216 212 205 206 216 214 208 206 201 200 197 196 197 197 195 191 188 190 185 186 185 182 186 185 184 183 188 187 198
179 183 195 217 222 222 247 16 302 246 223 189 191 226 272 233 1 278 269 262 239 234 252 250 244 233 227 269 264 278 304 320 296 276 273 255 237 232 231 243 251 254 246 233 229 231 229 234 239 242 240 236 230 226 225 224 225 225 224 222 221 220 222 228 237 226 228 228 223 212 207 210 217 216 211 201 200 197 194 196 193 198 196 196 190 187 183 184 184 185 182 184 183 177 176 186 184
169 163 203 196 23 263 249 123 164 43 297 261 192 252 257 276 271 253 247 233 237 236 251 189 244 210 204 246 14 63 32 357 352 306 301 296 278 249 240 242 245 244 235 227 228 228 231 234 236 240 243 243 240 236 235 232 232 230 228 225 225 227 222 229 236 233 230 230 228 218 213 213 215 213 210 201 198 198 193 193 193 192 192 189 186 187 186 187 184 184 182 178 178 166 169 177 160
134 198 198 101 51 356 248 232 158 225 249 262 177 236 259 232 284 31 212 229 236 241 248 192 176 182 180 117 121 83 39 8 339 341 321 291 284 274 271 252 244 243 244 241 237 229 233 234 234 242 244 243 242 242 240 236 233 232 232 229 227 232 227 227 232 237 236 232 226 224 216 211 214 210 207 194 195 191 192 189 192 190 188 187 187 184 185 184 182 185 178 177 168 165 177 172 161
193 188 135 156 197 213 207 215 239 226 237 273 249 243 245 231 240 153 158 177 180 200 178 171 169 177 141 141 122 110 63 16 23 25 21 8 324 310 274 267 266 245 240 247 244 240 234 233 230 228 229 230 237 239 242 243 240 237 235 235 232 226 226 227 228 229 233 235 230 218 199 208 209 208 207 182 186 191 190 188 187 187 184 185 183 183 180 180 178 175 175 169 161 170 167 158 157
310 131 178 213 321 213 179 201 311 268 255 250 273 205 254 209 226 225 199 182 177 167 177 178 175 165 152 143 136 113 71 38 15 14 0 334 321 300 278 269 260 258 251 242 249 244 244 239 236 238 242 243 238 233 231 234 237 238 235 234 235 233 229 230 229 226 225 230 231 205 204 207 211 205 205 184 194 191 188 185 186 183 182 181 181 180 178 174 174 174 164 155 164 161 152 150 144
172 181 186 190 220 2 280 198 214 212 238 240 268 269 250 244 192 203 222 214 212 179 184 176 176 165 156 147 141 162 151 213 291 327 326 325 323 309 289 265 264 243 231 234 238 251 255 246 241 238 238 239 238 238 239 237 234 235 237 238 238 233 232 230 230 224 219 215 214 206 197 199 190 202 190 195 198 195 191 188 184 183 181 180 177 176 173 170 173 169 165 157 162 161 153 152 146
182 184 187 186 170 172 182 219 192 221 227 244 253 262 268 168 132 192 210 204 165 125 125 139 157 167 171 159 167 184 190 191 253 272 282 286 298 301 288 258 215 242 250 235 231 244 257 254 254 248 241 242 238 236 233 237 240 241 240 236 237 236 234 233 231 226 225 225 223 223 205 194 204 202 194 199 199 196 193 188 187 185 185 182 178 175 169 171 170 163 160 160 164 160 155 150 148